• In Deutschland
  • Länderverzeichnis
  • Für 7 Tage
  • Wassertemperatur
  • Satellitenkarten
  • Wetterkarte
  • Widgets
  • user-avatar
    Anmelden

    Stündliche Wetter Barisal

    Heute, 22 Mai, Dienstag

    Zeit Temperatur Niederschläge Wind Luftdruck Luftfeuchtigkeit
    00:00 +29°C° 0 mm 3 m/S 754 mmHg 86%
    01:00 +29°C° 0,4 mm 3 m/S 753 mmHg 86%
    02:00 +29°C° 0,4 mm 4 m/S 753 mmHg 87%
    03:00 +29°C° 0,4 mm 4 m/S 753 mmHg 88%
    04:00 +29°C° 2 mm 4 m/S 753 mmHg 87%
    05:00 +29°C° 2 mm 4 m/S 753 mmHg 86%
    06:00 +29°C° 2 mm 4 m/S 753 mmHg 85%
    07:00 +30°C° 1,5 mm 4 m/S 754 mmHg 81%
    08:00 +32°C° 1,5 mm 4 m/S 754 mmHg 78%
    09:00 +33°C° 1,5 mm 5 m/S 755 mmHg 74%
    10:00 +34°C° 1,7 mm 4 m/S 754 mmHg 70%
    11:00 +34°C° 1,7 mm 4 m/S 754 mmHg 66%
    12:00 +35°C° 1,7 mm 4 m/S 754 mmHg 62%
    13:00 +36°C° 0 mm 4 m/S 754 mmHg 60%
    14:00 +36°C° 0 mm 5 m/S 753 mmHg 57%
    15:00 +37°C° 0 mm 5 m/S 753 mmHg 55%
    16:00 +36°C° 0 mm 5 m/S 753 mmHg 59%
    17:00 +35°C° 0 mm 5 m/S 753 mmHg 63%
    18:00 +34°C° 0 mm 5 m/S 752 mmHg 67%
    19:00 +33°C° 0 mm 5 m/S 753 mmHg 72%
    20:00 +32°C° 0 mm 4 m/S 753 mmHg 76%
    21:00 +30°C° 0 mm 4 m/S 754 mmHg 81%
    22:00 +30°C° 0 mm 4 m/S 754 mmHg 82%
    23:00 +30°C° 0 mm 4 m/S 754 mmHg 84%

    Morgen, 23 Mai, Mittwoch

    Zeit Temperatur Niederschläge Wind Luftdruck Luftfeuchtigkeit
    00:00 +30°C° 0 mm 4 m/S 754 mmHg 86%
    01:00 +30°C° 0 mm 4 m/S 754 mmHg 87%
    02:00 +30°C° 0 mm 4 m/S 753 mmHg 88%
    03:00 +29°C° 0 mm 3 m/S 753 mmHg 89%
    04:00 +30°C° 0,6 mm 4 m/S 753 mmHg 88%
    05:00 +30°C° 0,6 mm 4 m/S 754 mmHg 87%
    06:00 +30°C° 0,6 mm 4 m/S 754 mmHg 85%
    07:00 +32°C° 0,2 mm 4 m/S 754 mmHg 81%
    08:00 +33°C° 0,2 mm 4 m/S 755 mmHg 76%
    09:00 +33°C° 0,2 mm 4 m/S 756 mmHg 71%
    10:00 +34°C° 0,5 mm 4 m/S 755 mmHg 70%
    11:00 +34°C° 0,5 mm 4 m/S 755 mmHg 69%
    12:00 +34°C° 0,5 mm 4 m/S 755 mmHg 68%
    13:00 +35°C° 0 mm 4 m/S 754 mmHg 65%
    14:00 +35°C° 0 mm 4 m/S 754 mmHg 62%
    15:00 +36°C° 0 mm 4 m/S 753 mmHg 58%
    16:00 +35°C° 0 mm 4 m/S 753 mmHg 61%
    17:00 +35°C° 0 mm 5 m/S 752 mmHg 63%
    18:00 +34°C° 0 mm 5 m/S 752 mmHg 66%
    19:00 +33°C° 0 mm 4 m/S 753 mmHg 70%
    20:00 +32°C° 0 mm 4 m/S 753 mmHg 75%
    21:00 +32°C° 0 mm 4 m/S 753 mmHg 79%
    22:00 +30°C° 0 mm 4 m/S 753 mmHg 81%
    23:00 +30°C° 0 mm 4 m/S 753 mmHg 82%

    übermorgen, 24 Mai, Donnerstag

    Zeit Temperatur Niederschläge Wind Luftdruck Luftfeuchtigkeit
    00:00 +30°C° 0 mm 4 m/S 753 mmHg 84%
    01:00 +30°C° 0 mm 4 m/S 753 mmHg 85%
    02:00 +30°C° 0 mm 4 m/S 753 mmHg 85%
    03:00 +30°C° 0 mm 4 m/S 752 mmHg 86%
    04:00 +30°C° 0 mm 4 m/S 752 mmHg 87%
    05:00 +30°C° 0 mm 4 m/S 753 mmHg 87%
    06:00 +30°C° 0 mm 4 m/S 753 mmHg 87%
    07:00 +32°C° 0 mm 5 m/S 753 mmHg 79%
    08:00 +34°C° 0 mm 6 m/S 753 mmHg 71%
    09:00 +35°C° 0 mm 6 m/S 754 mmHg 63%
    10:00 +36°C° 0 mm 6 m/S 754 mmHg 59%
    11:00 +38°C° 0 mm 6 m/S 754 mmHg 55%
    12:00 +39°C° 0 mm 7 m/S 753 mmHg 50%
    13:00 +39°C° 0 mm 7 m/S 753 mmHg 49%
    14:00 +40°C° 0 mm 7 m/S 752 mmHg 47%
    15:00 +40°C° 0 mm 7 m/S 751 mmHg 46%
    16:00 +38°C° 0 mm 7 m/S 751 mmHg 51%
    17:00 +36°C° 0 mm 6 m/S 751 mmHg 56%
    18:00 +35°C° 0 mm 6 m/S 751 mmHg 61%
    19:00 +34°C° 0 mm 6 m/S 752 mmHg 66%
    20:00 +33°C° 0 mm 6 m/S 752 mmHg 71%
    21:00 +32°C° 0 mm 6 m/S 752 mmHg 77%
    22:00 +32°C° 0 mm 6 m/S 752 mmHg 78%
    23:00 +32°C° 0 mm 6 m/S 752 mmHg 79%

    25 Mai, Freitag

    Zeit Temperatur Niederschläge Wind Luftdruck Luftfeuchtigkeit
    00:00 +32°C° 0 mm 6 m/S 752 mmHg 80%
    01:00 +32°C° 0 mm 6 m/S 752 mmHg 80%
    02:00 +32°C° 0 mm 6 m/S 752 mmHg 81%
    03:00 +32°C° 0 mm 6 m/S 752 mmHg 81%
    04:00 +32°C° 0 mm 5 m/S 752 mmHg 81%
    05:00 +32°C° 0 mm 5 m/S 752 mmHg 80%
    06:00 +32°C° 0 mm 5 m/S 752 mmHg 80%
    07:00 +33°C° 0 mm 6 m/S 753 mmHg 74%
    08:00 +34°C° 0 mm 6 m/S 753 mmHg 68%
    09:00 +35°C° 0 mm 7 m/S 753 mmHg 62%
    10:00 +36°C° 0 mm 7 m/S 753 mmHg 57%
    11:00 +38°C° 0 mm 7 m/S 753 mmHg 53%
    12:00 +39°C° 0 mm 7 m/S 753 mmHg 49%
    13:00 +39°C° 0 mm 7 m/S 752 mmHg 49%
    14:00 +39°C° 0 mm 7 m/S 752 mmHg 49%
    15:00 +39°C° 0 mm 7 m/S 751 mmHg 49%
    16:00 +38°C° 0 mm 7 m/S 751 mmHg 53%
    17:00 +36°C° 0 mm 7 m/S 751 mmHg 57%
    18:00 +35°C° 0 mm 7 m/S 751 mmHg 61%
    19:00 +34°C° 0 mm 6 m/S 752 mmHg 66%
    20:00 +34°C° 0 mm 6 m/S 752 mmHg 70%
    21:00 +33°C° 0 mm 6 m/S 752 mmHg 74%
    22:00 +33°C° 0 mm 6 m/S 752 mmHg 75%
    23:00 +32°C° 0 mm 6 m/S 752 mmHg 77%

    26 Mai, Samstag

    Zeit Temperatur Niederschläge Wind Luftdruck Luftfeuchtigkeit
    00:00 +32°C° 0 mm 6 m/S 752 mmHg 78%
    01:00 +32°C° 0 mm 6 m/S 752 mmHg 78%
    02:00 +32°C° 0 mm 6 m/S 751 mmHg 78%
    03:00 +32°C° 0 mm 5 m/S 751 mmHg 78%
    04:00 +32°C° 0 mm 5 m/S 751 mmHg 79%
    05:00 +32°C° 0 mm 5 m/S 752 mmHg 80%
    06:00 +32°C° 0 mm 4 m/S 752 mmHg 82%
    07:00 +33°C° 0 mm 5 m/S 753 mmHg 76%
    08:00 +34°C° 0 mm 5 m/S 753 mmHg 70%
    09:00 +35°C° 0 mm 6 m/S 754 mmHg 64%
    10:00 +36°C° 0,1 mm 6 m/S 754 mmHg 61%
    11:00 +38°C° 0,1 mm 6 m/S 753 mmHg 58%
    12:00 +38°C° 0,1 mm 6 m/S 753 mmHg 55%
    13:00 +39°C° 0 mm 6 m/S 752 mmHg 53%
    14:00 +39°C° 0 mm 6 m/S 752 mmHg 51%
    15:00 +40°C° 0 mm 6 m/S 751 mmHg 48%
    16:00 +38°C° 0 mm 6 m/S 751 mmHg 53%
    17:00 +36°C° 0 mm 6 m/S 751 mmHg 58%
    18:00 +35°C° 0 mm 6 m/S 751 mmHg 63%
    19:00 +34°C° 0 mm 6 m/S 752 mmHg 66%
    20:00 +33°C° 0 mm 6 m/S 752 mmHg 70%
    21:00 +33°C° 0 mm 5 m/S 753 mmHg 74%
    22:00 +33°C° 0 mm 6 m/S 752 mmHg 75%
    23:00 +32°C° 0 mm 6 m/S 752 mmHg 77%

    27 Mai, Sonntag

    Zeit Temperatur Niederschläge Wind Luftdruck Luftfeuchtigkeit
    00:00 +32°C° 0 mm 6 m/S 752 mmHg 78%
    01:00 +32°C° 0 mm 5 m/S 752 mmHg 79%
    02:00 +32°C° 0 mm 5 m/S 751 mmHg 81%
    03:00 +30°C° 0 mm 4 m/S 751 mmHg 82%
    04:00 +30°C° 0,1 mm 4 m/S 752 mmHg 82%
    05:00 +32°C° 0,1 mm 4 m/S 752 mmHg 82%
    06:00 +32°C° 0,1 mm 4 m/S 752 mmHg 82%
    07:00 +33°C° 0 mm 4 m/S 753 mmHg 74%
    08:00 +35°C° 0 mm 5 m/S 753 mmHg 67%
    09:00 +36°C° 0 mm 5 m/S 753 mmHg 59%
    10:00 +37°C° 0 mm 5 m/S 753 mmHg 56%
    11:00 +37°C° 0 mm 5 m/S 752 mmHg 53%
    12:00 +39°C° 0 mm 5 m/S 752 mmHg 50%
    13:00 +39°C° 0 mm 6 m/S 751 mmHg 49%
    14:00 +40°C° 0 mm 6 m/S 751 mmHg 48%
    15:00 +40°C° 0 mm 6 m/S 750 mmHg 46%
    16:00 +39°C° 0 mm 6 m/S 750 mmHg 50%
    17:00 +38°C° 0 mm 6 m/S 750 mmHg 54%
    18:00 +36°C° 0 mm 6 m/S 750 mmHg 58%
    19:00 +35°C° 0 mm 6 m/S 751 mmHg 63%
    20:00 +34°C° 0 mm 5 m/S 751 mmHg 68%
    21:00 +33°C° 0 mm 5 m/S 752 mmHg 73%
    22:00 +32°C° 0 mm 5 m/S 751 mmHg 74%
    23:00 +32°C° 0 mm 5 m/S 751 mmHg 76%
    Mehr zeigen